Regional Weather Roundup
Issued by NWS

Home | Current Version | Previous Version | Graphics & Text | Print | Product List | Glossary On
Versions: 1 2 3 4 5 6 7 8 9 10 11 12 13 14 15 16 17 18 19 20 21 22 23 24 25 26 27 28 29 30 31 32 33 34 35 36 37 38 39 40 41 42 43 44 45 46 47 48 49 50
000
ASUS45 KTFX 181704
RWRMT
MONTANA HOURLY WEATHER ROUNDUP
NATIONAL WEATHER SERVICE GREAT FALLS MT
1004 AM MST THU DEC 18 2014

NOTE: "FAIR" INDICATES FEW OR NO CLOUDS BELOW 12000 FEET WITH NO
SIGNIFICANT WEATHER AND/OR OBSTRUCTIONS TO VISIBILITY.

* THESE STATIONS ARE NOT UNDER NWS QUALITY CONTROL. THEY DO NOT
   REPORT WEATHER SUCH AS PRECIPITATION OR FOG.

MTZ001>007-043-181800-
WEST OF THE DIVIDE
CITY           SKY/WX    TMP DP  RH WIND       PRES   REMARKS
KALISPELL      FOG       30  28  92 CALM      30.00R
MISSOULA       CLOUDY    28  27  96 CALM      30.04R
BUTTE          CLOUDY    12  10  92 E3        30.01S
MULLAN PASS    LGT SNOW  28  27  96 S5        29.92R VSB M1/4 WCI  22
* ANACONDA     PTSUNNY   30  18  61 S16G24     N/A   WCI  19
* ESSEX        N/A       29  28  96 SW2        N/A
* LINCOLN      N/A       22  20  92 NE2        N/A
* LOOKOUT PASS N/A       31  31 100 SE1        N/A
* POLSON       N/A       29  28  96 N/A        N/A
* RONAN APT    CLOUDY    30  28  92 N/A        N/A
* SEELEY LAKE  N/A       24  22  92 S1         N/A
* THOMP F APT  CLOUDY    22  17  81 N3G9       N/A
* YAAK HILL    N/A       32  30  92 N/A        N/A
$$

MTZ008-052>055-181800-
SOUTHWEST MONTANA
CITY           SKY/WX    TMP DP  RH WIND       PRES   REMARKS
BOZEMAN        SUNNY     19  16  88 CALM      30.05R
DILLON         CLOUDY    21  16  81 SW7       30.04R WCI  12
* W YELLOWSTON SUNNY     18  14  84 N/A        N/A
* THREE FORKS  PTCLDY    18  -8  31 N/A        N/A
* BOULDER HILL N/A       20  13  74 S12        N/A   WCI   8
* MONIDA PASS  N/A       19  19 100 E8         N/A   WCI   9
* RAYNOLDS PAS N/A       14   0  53 S9         N/A   WCI   2
* WHITEHALL    N/A       21  14  74 NW7G14     N/A   WCI  12
* WISE RIVER   N/A        9   5  84 SW1        N/A
$$

MTZ009>010-012-014-046-048-049-054-181800-
EAST SLOPES AND CENTRAL MONTANA
CITY           SKY/WX    TMP DP  RH WIND       PRES   REMARKS
CUT BANK       PTCLDY    30  27  89 SW7       29.86R WCI  23
GREAT FALLS    CLOUDY    36  25  64 SW21      29.90S WCI  25
HELENA         PTCLDY    25  21  85 NW5       30.02S WCI  19
* DEARBORN     N/A       37  22  55 S9G16      N/A   WCI  30
* EAST GLACIER N/A       33  29  85 W22G27     N/A   WCI  21
* MONARCH      N/A       33  16  50 S12        N/A   WCI  24
* PENDROY      N/A       34  26  73 W2         N/A
* ROGERS PASS  N/A       29  22  75 SE11G19    N/A   WCI  19
* SWEET GRASS  N/A       33  33 100 SW17       N/A   WCI  22
$$

MTZ011-013-016-021-035-040-045-047-050-051-181800-
NORTH CENTRAL MONTANA
CITY           SKY/WX    TMP DP  RH WIND       PRES   REMARKS
HAVRE          PTSUNNY   19  18  96 SW8       29.93S WCI   9
LEWISTOWN      PTSUNNY   39  25  57 SW13      29.92R WCI  31
* N BAR RANCH  CLOUDY    30  25  82 CALM      29.92S
* CHESTER      N/A       18  15  88 N/A        N/A
* DENTON       N/A       37  26  64 S3         N/A
* GEYSER       N/A       37  21  52 SW9        N/A   WCI  30
* JUDITH GAP   N/A       35  25  67 SW6        N/A   WCI  30
* LOMA         N/A       21  19  92 NE2        N/A
$$

MTZ017>020-022>027-061-062-181800-
NORTHEAST MONTANA
CITY           SKY/WX    TMP DP  RH WIND       PRES   REMARKS
GLASGOW        FOG       27  25  92 CALM      29.95R VSB 1/2
GLENDIVE       PTSUNNY   27  21  78 S6        29.99R WCI  20
JORDAN         SUNNY     27  23  85 W5        29.94S WCI  21
SIDNEY         CLOUDY    25  21  85 CALM      30.01S
WOLF POINT     CLOUDY    27  23  85 E3        29.98S
* BEAVER HILL  N/A       26  24  92 SW5        N/A   WCI  20
* CIRCLE       N/A       27  24  88 N/A        N/A
* LINDSAY DVD  N/A       30  30 100 N/A        N/A
* NAVAJO       N/A       22  21  96 SW6        N/A   WCI  14
* SACO         N/A       25  24  96 SE8        N/A   WCI  16
$$

MTZ028>042-056>058-181800-
SOUTHCENTRAL AND SOUTHEAST MONTANA
CITY           SKY/WX    TMP DP  RH WIND       PRES   REMARKS
BAKER          CLOUDY    30  28  92 W7        29.97R WCI  23
BILLINGS       PTSUNNY   28  19  69 SW18      29.98S WCI  15
LIVINGSTON     PTCLDY    37  18  46 SW17G31   29.98S WCI  27
MILES CITY     SUNNY     27  25  92 SW6       29.99R WCI  20
* LAUREL APT   PTCLDY    28  18  66 S10G16     N/A   WCI  19
* ROUNDUP APT  PTSUNNY   32  19  59 S6         N/A   WCI  26
* ALZADA       N/A       25  24  96 N/A        N/A
* HYSHAM       N/A       30  16  56 W7         N/A   WCI  23
* LAME DEER    N/A       29  20  69 N/A        N/A
* REED POINT   N/A       21  20  96 SE1G6      N/A
* ROSCOE HILL  N/A       35   5  28 SW15G25    N/A   WCI  25
$$

REGIONAL REPORTS...DAKOTAS
CITY           SKY/WX    TMP DP  RH WIND       PRES   REMARKS
WILLISTON      CLOUDY    23  19  85 S7        30.00S WCI  15
DICKINSON      FOG       27  21  78 S6        29.96R WCI  20
BEACH          FOG       27  27 100 W6        29.98R VSB 3    WCI  20
CROSBY         CLOUDY    21  21 100 S8        30.01R WCI  11
WATFORD CITY   FOG       21  21 100 SE6       29.99S WCI  13
BISMARCK       FOG       19  18  96 S10       30.09S WCI   8
GRAND FORKS    CLOUDY    14  10  84 S8        30.24S WCI   3
FARGO          CLOUDY    16  10  77 S13       30.25S WCI   2
BUFFALO SD     PTCLDY    27  23  85 CALM      29.91R
RAPID CITY     FOG       25  21  85 CALM      30.01R
$$

REGIONAL REPORTS...WYOMING/IDAHO/WASHINGTON
CITY           SKY/WX    TMP DP  RH WIND       PRES   REMARKS
GILLETTE       SUNNY     34  21  59 SW15      30.00R WCI  24
SHERIDAN       SUNNY     21  12  68 W5        30.00R WCI  14
CODY           SUNNY     30  16  56 CALM      30.02R
YELLOWSTONE LA PTCLDY    21  16  81 VRB6      30.07S WCI  13
SALMON         PTCLDY    21  18  88 N/A       30.12R
MULLAN PASS    LGT SNOW  28  27  96 S5        29.92S VSB M1/4 WCI  22
SAND POINT     N/A       32  32 100 CALM      30.00R VSB 3
SPOKANE        FOG       36  36 100 S3        29.99R VSB 3
$$

REGIONAL REPORTS...SASKATCHEWAN
CITY           SKY/WX    TMP DP  RH WIND       PRES   REMARKS
SWIFT CURRENT  FOG       21  19  92 SW13      29.86R WCI   8

$$




USA.gov is the U.S. government's official web portal to all federal, state and local government web resources and services.